Location: Peterborough
(44.3091°N, 78.3197°W)
Time: 03:55:39
(UTC-04:00)

Tiros 1 despin weight - Pass Details

Date: 27 March 2023
Orbit: 586 x 632 km, 48.2° (Epoch: 08 June)

Event Time Altitude Azimuth Distance (km) Brightness Sun altitude
Rises 01:29:21 0° 289° (WNW) 2,826 - -43.1°
Reaches altitude 10° 01:31:39 10° 292° (WNW) 1,929 - -43.1°
Maximum altitude 01:36:03 66° 16° (NNE) 656 - -43.0°
Drops below altitude 10° 01:40:31 10° 99° (E) 1,955 - -42.9°
Sets 01:42:51 0° 102° (ESE) 2,866 - -42.9°
